Regional Weather Roundup
Issued by NWS

Home | Current Version | Previous Version | Text Only | Print | Product List | Glossary Off
Versions: 1 2 3 4 5 6 7 8 9 10 11 12 13 14 15 16 17 18 19 20 21 22 23 24 25 26 27 28 29 30 31 32 33 34 35 36 37 38 39 40 41 42 43 44 45 46 47 48 49 50

000
ASUS45 KTFX 191004
RWRMT
MONTANA HOURLY WEATHER ROUNDUP
NATIONAL WEATHER SERVICE GREAT FALLS MT
404 AM MDT FRI SEP 19 2014

NOTE: "FAIR" INDICATES FEW OR NO CLOUDS BELOW 12000 FEET WITH NO
SIGNIFICANT WEATHER AND/OR OBSTRUCTIONS TO VISIBILITY.

* THESE STATIONS ARE NOT UNDER NWS QUALITY CONTROL. THEY DO NOT
   REPORT WEATHER SUCH AS PRECIPITATION OR FOG.

MTZ001>007-043-191100-
WEST OF THE DIVIDE
CITY           SKY/WX    TMP DP  RH WIND       PRES   REMARKS
KALISPELL      CLOUDY    63  52  68 SW12      29.86R
MISSOULA       CLOUDY    63  46  54 W3        29.93R
BUTTE          CLOUDY    48  43  83 CALM      30.01R
MULLAN PASS    CLOUDY    48  45  89 VRB7      30.02S
* ESSEX        N/A       54  52  93 N3         N/A
* LINCOLN      N/A       61  41  48 S6         N/A
* LOOKOUT PASS N/A       55  46  72 SE6        N/A
* POLSON       N/A       59  47  65 N1         N/A
* RONAN APT    CLOUDY    64  46  52 SW5        N/A
* SEELEY LAKE  N/A       59  43  56 S2         N/A
* THOMP F APT  CLOUDY    49  45  86 NE3        N/A
$$

MTZ008-052>055-191100-
SOUTHWEST MONTANA
CITY           SKY/WX    TMP DP  RH WIND       PRES   REMARKS
BOZEMAN        MOCLDY    48  46  93 S8        29.93R
DILLON         PTCLDY    52  39  61 SW9       29.97R
W YELLOWSTONE  FOG       41  41 100 CALM      30.08R VSB M1/4
* THREE FORKS  PTCLDY    52  32  47 N/A        N/A
* BOULDER HILL N/A       53  41  64 NE1        N/A
* MONIDA PASS  N/A       43  43 100 SE11       N/A
* RAYNOLDS PAS N/A       46  32  58 S9         N/A
* WHITEHALL    N/A       52  47  83 NE2G7      N/A
* WISE RIVER   N/A       46  41  83 W5         N/A
$$

MTZ009>010-012-014-046-048-049-054-191100-
EAST SLOPES AND CENTRAL MONTANA
CITY           SKY/WX    TMP DP  RH WIND       PRES   REMARKS
CUT BANK       PTCLDY    61  45  56 W22       29.77S
GREAT FALLS    MOCLDY    63  43  48 SW13      29.80R
HELENA         CLOUDY    64  41  43 W9        29.89S
MALMSTROM AFB  CLOUDY    64  43  47 SW15      29.80R
* CONRAD       PTCLDY    54  52  93 S7         N/A
* EAST GLACIER N/A       57  45  64 W16G27     N/A
* MONARCH      N/A       59  37  44 SW17G24    N/A
* PENDROY      N/A       57  43  60 W9G14      N/A
* ROGERS PASS  N/A       57  39  51 SE6G19     N/A
* SAINT MARY   N/A       58  44  60 S10G26     N/A
* SWEET GRASS  N/A       58  45  62 W12G17     N/A
$$

MTZ011-013-016-021-035-040-045-047-050-051-191100-
NORTH CENTRAL MONTANA
CITY           SKY/WX    TMP DP  RH WIND       PRES   REMARKS
HAVRE          CLOUDY    61  46  58 SW13      29.71R
LEWISTOWN      PTCLDY    61  46  58 SW14      29.83R
* CHESTER      N/A       60  43  54 W10G15     N/A
* DENTON       N/A       56  48  75 W7         N/A
* GEYSER       N/A       63  44  50 SW19G26    N/A
* JUDITH GAP   N/A       59  47  65 NW10       N/A
* LOMA         N/A       63  44  50 SW8        N/A
$$

MTZ017>020-022>027-061-062-191100-
NORTHEAST MONTANA
CITY           SKY/WX    TMP DP  RH WIND       PRES   REMARKS
GLASGOW        FAIR      57  48  72 W8        29.64R
GLENDIVE       CLOUDY    64  54  70 W14       29.65R
JORDAN         PTCLDY    55  52  90 NW8       29.69S
SIDNEY         CLOUDY    66  57  73 W13G18    29.60S
WOLF POINT     MOCLDY    59  54  84 W7        29.62R
* BEAVER HILL  N/A       64  53  68 SW12       N/A
* CIRCLE       N/A       61  55  81 W5         N/A
* LINDSAY DVD  N/A       65  54  68 SW16G23    N/A
* NAVAJO       N/A       62  48  60 W14        N/A
* SACO         N/A       56  50  80 SW6        N/A
$$

MTZ028>042-056>058-191100-
SOUTHCENTRAL AND SOUTHEAST MONTANA
CITY           SKY/WX    TMP DP  RH WIND       PRES   REMARKS
BAKER          CLOUDY    64  55  73 SW14      29.70F
BILLINGS       PTCLDY    64  52  65 SW12      29.82R
LIVINGSTON     CLEAR     59  46  62 W13G23    29.90R
MILES CITY     CLOUDY    63  54  73 W9        29.70S
* LAUREL APT   PTCLDY    57  48  72 N/A        N/A
* ROUNDUP APT  CLEAR     61  46  58 SW7        N/A
* ALZADA       N/A       59  54  84 W5         N/A
* HYSHAM       N/A       61  52  72 W4         N/A
* LAME DEER    N/A       63  51  65 W10G16     N/A
* REED POINT   N/A       51  50  96 N/A        N/A
* ROSCOE HILL  N/A       61  35  38 S11G20     N/A
$$

REGIONAL REPORTS...DAKOTAS
CITY           SKY/WX    TMP DP  RH WIND       PRES   REMARKS
WILLISTON      CLOUDY    64  52  65 W12       29.56S
DICKINSON      CLOUDY    66  54  65 W15       29.63R
BEACH          N/A       64  54  70 W16       29.67R
CROSBY         CLEAR     63  55  75 SW10      29.53S
TIOGA          CLOUDY    61  55  81 W6        29.59S
WATFORD CITY   CLEAR     61  54  78 SW10      29.56S
BISMARCK       CLOUDY    64  63  97 SE12      29.60F
GRAND FORKS    CLOUDY    64  57  78 S18G26    29.60S
FARGO          CLOUDY    64  55  73 S22G30    29.71R
RAPID CITY     MOCLDY    70  52  53 N14       29.78S
$$

REGIONAL REPORTS...WYOMING/IDAHO/WASHINGTON
CITY           SKY/WX    TMP DP  RH WIND       PRES   REMARKS
GILLETTE       CLOUDY    57  55  93 W7        29.87F
SHERIDAN       CLOUDY    63  54  73 W9        29.83R
CODY           CLOUDY   N/A N/A N/A N/A        N/A
YELLOWSTONE LA PTCLDY    41  39  93 NW5       30.15S
SALMON         CLEAR     45  41  86 S5        29.98R
MULLAN PASS    CLOUDY    48  45  89 VRB7      30.02S
SAND POINT     CLOUDY    61  52  72 S5        29.88R
SPOKANE        CLOUDY    57  48  72 SW17      29.91R

$$




USA.gov is the U.S. government's official web portal to all federal, state and local government web resources and services.